TIME,DELAY(SENSOR),PRES,T(CTD),SAL,OXYGEN,RAWTEMP,T(OPTODE),TCPHASE,FLUOR,BETA(BETA700),BETA(BETA412),BETA(BETA440),CDOM,C(CSC),ED(ED411.90),ED(ED443.80),ED(ED489.40),ED(ED554.70),LU(LU412.20),LU(LU443.80),LU(LU489.40),LU(LU555.00),COMP,TILTX,TILTX(TILTY),CHECK
1341243781,5803,497.2900085449219000,16.4193000793457030,36.2622985839843750,219.8930053710937500,221.7227020263672000,16.4211196899414060,32.9827117919921900,50,108,100,79,69,15430,2147479122,2147769572,2147563126,2147799680,2147315300,2147474075,2147715108,2148247204,1817,7,13,49386
1341243910,5803,486.4800109863281000,16.5925006866455080,36.2958984375000000,222.6461944580078000,215.9125061035156200,16.5977802276611330,32.7570991516113300,50,106,100,78,68,15433,2147481051,2147766948,2147561060,2147799798,2147314624,2147471579,2147713746,2148251812,2598,7,13,24817
1341244049,5802,475.0499877929687500,16.7684001922607420,36.3293991088867200,224.8141021728515600,210.1721954345703000,16.7723293304443360,32.5650787353515600,50,107,100,79,69,15429,2147481106,2147766125,2147559140,2147799049,2147313417,2147477878,2147716406,2148246811,2922,7,13,63321
1341244178,5805,464.5100097656250000,16.9195003509521500,36.3590011596679700,227.8074035644531200,205.2630004882812500,16.9216194152832030,32.3446693420410160,50,109,100,79,67,15428,2147479469,2147770048,2147561755,2147795593,2147311158,2147473097,2147716736,2148248347,189,7,13,41342
1341244317,5803,453.1600036621094000,17.0387001037597660,36.3811988830566400,227.5296020507812500,201.5767059326172000,17.0337295532226560,32.3077201843261700,50,107,99,80,68,15430,2147480777,2147765092,2147560365,2147799817,2147314505,2147477046,2147713618,2148247570,3564,7,13,4517
1341244446,5804,442.4400024414062500,17.1679992675781250,36.4058990478515600,229.9969940185547000,197.2462005615234400,17.1654491424560550,32.1245994567871100,50,111,99,80,68,15424,2147483355,2147768329,2147563163,2147797394,2147310838,2147475254,2147713115,2148244955,521,8,13,60581
1341244573,5803,431.8099975585937500,17.3006000518798830,36.4304008483886700,231.0749053955078000,192.6195983886718800,17.3061904907226560,32.0077705383300800,50,113,100,80,67,15423,2147484224,2147765933,2147561691,2147799716,2147311158,2147479506,2147713472,2148243501,361,7,13,57188
1341244712,5802,420.2200012207031000,17.4395999908447270,36.4546012878418000,232.4062957763672000,188.3699035644531200,17.4354896545410160,31.8840904235839840,49,109,99,80,66,15421,2147482230,2147767405,2147559753,2147794203,2147303021,2147473590,2147713910,2148241874,3488,7,13,40911
1341244841,5801,409.4400024414062500,17.5221996307373050,36.4715995788574200,232.2162933349609400,185.5108032226562500,17.5224800109863280,31.8545303344726560,50,107,99,80,67,15431,2147484123,2147766784,2147561298,2147796946,2147311323,2147476754,2147710454,2148240996,475,7,13,39991
1341244968,5805,398.7999877929687500,17.6117000579834000,36.4896011352539060,233.8018951416015600,182.6098022460937500,17.6107692718505860,31.7375793457031250,50,107,99,81,66,15430,2147486107,2147766244,2147559990,2147795785,2147311241,2147479396,2147713371,2148243355,278,7,13,4833
1341245109,5806,386.9899902343750000,17.6877994537353500,36.5068016052246100,236.3549957275390600,180.2229003906250000,17.6834106445312500,31.5820198059082030,50,107,99,79,67,15433,2147486162,2147767844,2147559954,2147794834,2147314230,2147478144,2147708717,2148243684,529,7,13,30489
1341245236,5804,376.2500000000000000,17.7303009033203120,36.5152015686035160,237.3968963623047000,178.7859039306640600,17.7271499633789060,31.5128002166748050,50,106,99,79,67,15435,2147482468,2147768246,2147565622,2147795062,2147298971,2147477805,2147714203,2148240923,1081,7,13,26585
1341245363,5802,365.4599914550781000,17.7865009307861330,36.5228996276855500,236.9987945556640600,176.9705963134765600,17.7824096679687500,31.5070896148681640,50,107,99,80,68,15432,2147486381,2147768320,2147562880,2147796699,2147305453,2147478528,2147710674,2148238966,1045,7,13,57797
1341245492,5801,354.3800048828125000,17.8533992767334000,36.5343017578125000,237.3717956542968800,174.7595062255859400,17.8497200012207030,31.4594001770019530,50,106,100,80,66,15432,2147483821,2147768393,2147562678,2147796077,2147310125,2147477312,2147714660,2148243181,1105,7,13,2310
1341245619,5802,343.4599914550781000,17.8740997314453120,36.5385017395019500,237.8979949951172000,174.0536956787109400,17.8712005615234380,31.4252796173095700,50,107,99,80,67,15431,2147487104,2147767981,2147564790,2147798006,2147307474,2147482724,2147709897,2148242870,1241,7,13,11504
1341245748,5805,332.3599853515625000,17.9339008331298830,36.5485000610351560,238.4725952148437500,172.1412048339843800,17.9294300079345700,31.3719596862792970,50,107,99,78,66,15430,2147485522,2147765522,2147567926,2147792932,2147304685,2147480393,2147714176,2148241910,1536,7,13,56953
1341245875,5803,321.5299987792969000,17.9754009246826170,36.5542984008789060,238.7371978759765600,170.7154998779297000,17.9728393554687500,31.3407001495361330,50,107,101,80,66,15429,2147484608,2147768411,2147572269,2147792082,2147307291,2147480374,2147716388,2148243145,1584,7,13,43653
1341246002,5802,310.8500061035156000,18.0142002105712900,36.5606994628906250,238.8247070312500000,169.4411010742187500,18.0116500854492200,31.3193702697753900,50,108,100,80,67,15430,2147485933,2147767369,2147579465,2147793590,2147309632,2147480960,2147720155,2148241325,2214,7,13,45979
1341246143,5803,299.2799987792969000,18.0466995239257800,36.5639991760253900,238.2474060058593800,168.3674926757812500,18.0443401336669920,31.3319892883300780,50,107,99,79,66,15427,2147486884,2147767542,2147585947,2147792438,2147309924,2147483538,2147720475,2148240484,2460,7,13,60842
1341246270,5804,288.9800109863281000,18.0778999328613280,36.5661010742187500,237.4913024902343800,167.3574981689453000,18.0750999450683600,31.3543796539306640,50,108,99,79,66,15428,2147487003,2147773257,2147593472,2147792640,2147305024,2147481764,2147731017,2148243318,3122,7,12,22402
1341246411,5802,277.9500122070312500,18.1254997253417970,36.5727005004882800,237.0652008056640600,165.7855072021484400,18.1229801177978500,31.3535499572753900,50,110,100,80,66,15424,2147488365,2147775936,2147605229,2147794541,2147308315,2147491657,2147738715,2148240283,174,7,13,27330
1341246562,5803,266.6099853515625000,18.1814002990722660,36.5792999267578100,236.7886047363281200,163.9714965820312500,18.1782302856445300,31.3423805236816400,50,109,99,81,66,15425,2147489188,2147783890,2147627794,2147794880,2147308754,2147493833,2147749613,2148241453,260,7,13,9212
1341246732,5804,252.6600036621093800,18.2362995147705080,36.5807991027832000,235.2743072509765600,162.1483001708984400,18.2337703704834000,31.3903007507324220,50,111,100,79,66,15417,2147489243,2147786971,2147622089,2147795931,2147306715,2147492818,2147749577,2148244598,529,7,13,5187
1341246847,5804,241.5299987792968800,18.2978992462158200,36.5866012573242200,234.0643005371093800,160.0373992919922000,18.2980804443359380,31.4203605651855470,50,109,100,80,68,15420,2147488603,2147794304,2147659200,2147794505,2147306770,2147501129,2147769508,2148246180,399,7,12,4240
1341246976,5802,229.7500000000000000,18.3910999298095700,36.5945014953613300,233.4109954833984400,157.0724029541015600,18.3884201049804700,31.4119396209716800,50,110,100,81,65,15418,2147490825,2147827931,2147751497,2147793088,2147306413,2147520676,2147823021,2148247954,3581,7,12,41042
1341247103,5803,218.3500061035156200,18.4631004333496100,36.5900001525878900,233.1898956298828000,154.3692016601562500,18.4708003997802730,31.3866405487060550,50,109,100,81,68,15417,2147494052,2147851977,2147821888,2147795209,2147310290,2147537408,2147865252,2148248548,332,7,13,49012
1341247230,5806,207.1900024414062500,18.5925006866455080,36.6018981933593750,230.6864929199218800,150.4360961914062500,18.5906906127929700,31.4555702209472660,50,111,100,80,66,15411,2147497435,2147864877,2147850029,2147794139,2147308918,2147546870,2147880649,2148249398,731,7,13,10153
1341247353,5803,197.4400024414062500,18.8227996826171880,36.6080017089843750,229.5158996582031200,142.5386962890625000,18.8315200805664060,31.4073905944824220,50,112,100,81,68,15414,2147506422,2147928512,2148019200,2147794962,2147319460,2147582866,2147978002,2148253851,456,6,12,64558
1341247408,5804,193.4900054931640600,18.9046993255615230,36.6171989440918000,229.5142059326172000,139.8674011230468800,18.9130096435546880,31.3718299865722660,50,113,101,81,66,15412,2147511030,2147936009,2148027382,2147793051,2147314614,2147586432,2147982162,2148254656,3560,7,13,9511
1341247463,5801,189.4799957275390600,18.9589004516601560,36.6125984191894500,230.8406066894531200,138.1981964111328000,18.9639301300048830,31.2846603393554700,51,114,100,81,66,15413,2147510061,2147890322,2147896164,2147789686,2147316178,2147563053,2147912128,2148250934,3413,7,13,48805
1341247518,5806,185.4799957275390600,19.0123004913330080,36.6082000732421900,233.8852996826172000,136.7521057128906200,19.0080604553222660,31.1182403564453120,51,113,101,81,66,15413,2147506413,2147889965,2147878957,2147791341,2147321197,2147563245,2147899538,2148250450,140,7,13,62821
1341247573,5803,181.5700073242187500,19.0863990783691400,36.6035003662109400,236.5897064208984400,134.4485931396484400,19.0783596038818360,30.9588909149169920,50,111,101,81,66,15413,2147519506,2147981010,2148140214,2147791122,2147320813,2147624100,2148046034,2148263104,161,7,12,36765
1341247651,5805,176.6399993896484400,19.1657009124755860,36.6007995605468750,240.9922027587890600,131.6925048828125000,19.1624908447265620,30.7168502807617200,51,112,101,81,65,15412,2147513920,2147942902,2148023131,2147787190,2147325769,2147600713,2147986221,2148252918,25,8,12,54059
1341247718,5805,173.0399932861328000,19.2150993347167970,36.5998001098632800,244.4467010498047000,130.1707000732422000,19.2089500427246100,30.5386199951171880,51,114,102,82,65,15411,2147525266,2147970002,2148081161,2147795209,2147326921,2147618038,2148016649,2148256219,132,7,13,34031
1341247785,5806,169.3600006103515600,19.1674995422363280,36.5694999694824200,249.6116943359375000,131.8992004394531200,19.1561794281005860,30.3295097351074220,58,118,101,82,64,15407,2147527433,2147986779,2148105536,2147793691,2147329856,2147629211,2148028854,2148253165,148,8,13,46140
1341247864,5803,165.1199951171875000,19.1916007995605470,36.5620994567871100,253.7478942871093800,130.8603057861328000,19.1879005432128900,30.1343307495117200,63,117,100,81,62,15392,2147559049,2148141897,2148507849,2147795273,2147347520,2147727478,2148257554,2148270262,265,7,12,39312
1341247933,5804,161.3200073242187500,19.1982002258300780,36.5561981201171900,254.7469940185547000,130.5868072509765600,19.1962509155273440,30.0874500274658200,67,119,102,81,64,15388,2147530916,2147986450,2148077522,2147792338,2147328329,2147623341,2148008256,2148256201,516,7,12,32116
1341248000,5801,157.5500030517578000,19.1931991577148440,36.5525016784668000,255.3834075927734400,130.6380004882812500,19.1946907043457030,30.0606193542480470,71,120,101,81,64,15391,2147549275,2148067465,2148276626,2147791360,2147339611,2147676452,2148118116,2148259931,944,7,12,59634
1341248079,5801,153.0099945068359400,19.2129993438720700,36.5535011291503900,255.4759063720703000,130.1526947021484400,19.2094993591308600,30.0503406524658200,73,120,102,81,64,15388,2147578349,2148175954,2148519277,2147794578,2147346578,2147733805,2148242185,2148269440,1218,7,13,23698
1341248146,5803,149.0899963378906200,19.2360992431640620,36.5584983825683600,255.5440063476562500,129.0160064697265600,19.2442092895507800,30.0327091217041000,74,121,101,82,64,15389,2147585316,2148188352,2148526262,2147794587,2147353910,2147745910,2148255186,2148272502,1192,7,12,27244
1341248213,5802,145.1199951171875000,19.2243995666503900,36.5517005920410160,255.8883972167968800,129.6997070312500000,19.2233295440673830,30.0266990661621100,78,124,102,82,65,15380,2147656649,2148487488,2149235885,2147797001,2147381019,2147915501,2148620854,2148294482,1215,7,12,45641
1341248282,5804,141.0500030517578000,19.2217006683349600,36.5471000671386700,256.5372009277344000,129.8045043945312500,19.2201309204101560,30.0002708435058600,71,122,101,83,64,15377,2147694546,2148610358,2149494518,2147801700,2147408886,2147988973,2148755949,2148299520,1096,7,13,18123
1341248349,5801,137.1100006103515600,19.2310009002685550,36.5475006103515600,256.7977905273437500,129.5971984863281200,19.2264595031738280,29.9863090515136720,71,121,103,83,64,15386,2147684022,2148499017,2149171044,2147797668,2147401938,2147933028,2148627474,2148293293,1117,7,13,7879
1341248416,5802,133.1600036621093800,19.2546005249023440,36.5512008666992200,256.7958068847656000,128.8666992187500000,19.2487697601318360,29.9769592285156250,80,127,104,84,65,15373,2147804909,2148939474,2150164022,2147806317,2147449142,2148187931,2149144841,2148326400,1321,7,13,9400
1341248483,5802,129.3699951171875000,19.2761993408203120,36.5540008544921900,256.5397033691406000,128.0110015869140600,19.2749004364013670,29.9768791198730470,84,127,102,84,64,15360,2147923949,2149301897,2150961938,2147822089,2147517677,2148395200,2149558144,2148356160,1554,7,13,39436
1341248562,5804,124.9700012207031200,19.2999000549316400,36.5568008422851560,255.9960937500000000,127.3004989624023400,19.2965908050537100,29.9910392761230470,99,133,104,84,63,15348,2148002998,2149507392,2151320274,2147830656,2147542976,2148491245,2149712905,2148365915,1623,7,12,21539
1341248631,5804,121.2399978637695300,19.3097991943359380,36.5531997680664060,256.0787963867187500,126.8938980102539000,19.3090190887451170,29.9823608398437500,107,137,104,82,64,15341,2148073261,2149637924,2151486720,2147834788,2147564086,2148511414,2149711387,2148368054,1966,7,13,26446
1341248710,5803,117.3000030517578100,19.3411006927490230,36.5591011047363300,256.0869140625000000,125.9598007202148400,19.3375396728515620,29.9697399139404300,113,137,104,83,62,15335,2148422235,2150674669,2153685092,2147869110,2147713115,2149033462,2150786688,2148448950,1742,7,13,28601
1341248789,5800,113.6900024414062500,19.3778991699218750,36.5629997253418000,256.4447937011719000,124.6417007446289000,19.3777999877929700,29.9374198913574220,122,138,104,86,64,15323,2148579328,2151020507,2154252617,2147884571,2147778075,2149160914,2151010468,2148469156,1410,7,13,16301
1341248880,5804,109.8000030517578100,19.4032993316650400,36.5662994384765600,257.0809020996094000,124.0238037109375000,19.3966808319091800,29.9022502899169920,129,138,104,84,64,15307,2148700937,2151192484,2154325632,2147892489,2147820635,2149203830,2150994962,2148479168,1461,7,13,31118
1341248985,5803,105.7600021362304700,19.4094009399414060,36.5638999938964840,257.5049133300781000,123.6579971313476600,19.4078502655029300,29.8793907165527340,135,149,104,84,64,15302,2149188800,2152308160,2156222902,2147941796,2148001536,2149639113,2151724416,2148543241,1471,7,13,61690
1341249088,5803,102.0299987792968800,19.5048999786376950,36.5825004577636700,258.9901123046875000,120.7174987792968800,19.4976902008056640,29.7786903381347660,142,137,105,84,64,15295,2149887314,2153818779,2158560950,2148004169,2148251254,2150197312,2152617993,2148629723,1648,7,13,30482
1341249179,5804,98.6299972534179700,19.5435009002685550,36.5862998962402340,262.1781921386719000,119.3310012817382800,19.5400695800781250,29.6268596649169920,143,139,106,85,66,15282,2150567899,2155155145,2160378980,2148060452,2148459547,2150630656,2153220992,2148692361,1752,7,13,18504
1341249234,5804,96.4800033569336000,19.5902004241943360,36.5894012451171900,262.5546875000000000,118.0399017333984400,19.5795192718505860,29.5948104858398440,143,140,104,86,65,15273,2150842121,2155577755,2160641206,2148068608,2148547565,2150752868,2153310528,2148711561,1689,8,13,17253
1341249309,5802,92.6699981689453100,19.6084995269775400,36.5844993591308600,266.1498107910156000,117.2013015747070300,19.6051597595214840,29.4356899261474600,132,142,107,85,65,15255,2152331136,2158611373,2165153270,2148221430,2149034496,2151772269,2154944374,2148883785,1723,7,13,44058
1341249364,5803,89.0899963378906200,19.6131992340087900,36.5789985656738300,268.5939941406250000,117.0884017944336000,19.6086101531982420,29.3348407745361330,149,147,106,85,64,15236,2153596470,2160923693,2167978148,2148355181,2149410715,2152445257,2155851766,2149008393,1968,7,13,13232
1341249419,5804,85.1800003051757800,19.6632995605468750,36.5828018188476560,268.5595092773437500,115.3725967407226600,19.6610603332519530,29.3144207000732420,125,150,108,86,64,15221,2153957805,2160908160,2166610386,2148320210,2149527268,2152414893,2155406180,2148988388,2440,7,13,54348
1341249474,5803,81.1600036621093800,19.7147998809814450,36.5848007202148440,271.1058044433594000,113.5789031982421900,19.7159004211425780,29.1892395019531250,112,145,106,85,64,15236,2156046290,2164468525,2171085193,2148561234,2150260288,2153769033,2157268736,2149220096,2338,7,13,49916
1341249529,5801,77.1600036621093800,19.7758007049560550,36.5955009460449200,272.0108947753906000,111.5985031127929700,19.7764606475830080,29.1281204223632800,106,141,105,86,63,15242,2158952393,2169168941,2176781056,2148893339,2151338980,2155726253,2159779657,2149534235,1694,7,13,42141
1341249584,5804,73.2399978637695300,19.8285007476806640,36.5900993347168000,272.9641113281250000,109.8115997314453100,19.8311195373535160,29.0675392150878900,97,141,107,86,64,15232,2163787684,2177057554,2186676032,2149529398,2153152118,2158998052,2164073444,2150064329,998,7,12,14161
1341249659,5802,68.6999969482421900,19.9531993865966800,36.6004981994628900,274.6581115722656000,106.2185974121093800,19.9410495758056640,28.9552593231201170,92,141,108,86,63,15231,2162883748,2173609152,2179875830,2149292617,2152981065,2158023222,2161730477,2149825910,1363,7,13,61025
1341249714,5802,66.2600021362304700,19.9888000488281250,36.6040992736816400,275.2128906250000000,104.9067993164062500,19.9811897277832030,28.9170494079589840,91,139,107,85,64,15240,2170275492,2185788041,2196060160,2150476141,2155834395,2163496585,2169909193,2150716160,1468,7,13,32877
1341249769,5803,64.1200027465820300,20.0515003204345700,36.6054992675781250,275.9284973144531000,102.8828964233398400,20.0431404113769530,28.8635597229003900,93,140,109,87,61,15222,2174809261,2192475245,2204022966,2151210916,2157635565,2166190107,2172437202,2151192905,1430,7,13,4314
1341249824,5801,62.3800010681152340,20.0718994140625000,36.6076011657714840,276.3070983886719000,101.9638977050781200,20.0712699890136720,28.8372001647949220,89,141,109,85,62,15225,2175562971,2192726500,2203427346,2151317760,2158098962,2166566820,2172434331,2151237394,1361,7,13,38535
1341249879,5803,60.9399986267089840,20.1291999816894530,36.6068000793457000,277.1857910156250000,100.3117980957031200,20.1218490600585940,28.7823505401611330,86,140,106,86,61,15227,2180016841,2199193142,2211084425,2152038436,2160092278,2169857590,2176512758,2151757696,1204,6,13,5838
1341249965,5805,59.0600013732910160,20.2185001373291000,36.6125984191894500,277.7362976074219000,97.2955398559570300,20.2142200469970700,28.7231101989746100,84,142,107,85,63,15212,2184841782,2205261650,2217411584,2152816082,2162268452,2172960640,2179573842,2152194422,928,7,13,14374
1341250032,5805,57.2400016784668000,20.3404006958007800,36.6263008117675800,278.0213012695312500,93.7345733642578100,20.3233108520507800,28.6676006317138670,82,139,106,85,62,15215,2189364790,2210658834,2222782070,2153619072,2164284507,2175478454,2181687963,2152517842,526,7,13,13972
1341250123,5803,55.4199981689453100,20.4657001495361330,36.6306991577148440,277.9348144531250000,89.4224166870117200,20.4554691314697270,28.6169204711914060,78,139,107,88,63,15223,2189735195,2208085019,2215933906,2152993188,2165757421,2176727533,2181590884,2152355437,3084,7,13,59561
1341250300,5802,51.8600006103515600,20.6343994140625000,36.6213989257812500,280.8200073242187500,83.5858764648437500,20.6344604492187500,28.4336891174316400,71,141,108,88,62,15208,2179105910,2189522267,2191572059,2151207716,2162372397,2169409536,2170553965,2151009846,2961,7,13,62354
1341250357,5802,49.4000015258789060,20.8495006561279300,36.6276016235351560,280.8865966796875000,78.1634826660156200,20.8008594512939450,28.3639297485351560,68,147,109,88,62,15211,2188476544,2200886372,2203398006,2152660059,2167654875,2176544082,2177565211,2151939163,2288,8,12,27784
1341250402,5803,47.5800018310546900,20.8953990936279300,36.6206016540527340,281.4161987304687500,76.0038604736328100,20.8671703338623050,28.3169498443603500,67,144,108,87,60,15216,2208651949,2226060672,2230412928,2155978569,2179072585,2192166089,2193456347,2154089042,2538,7,13,49593
1341250459,5801,45.5299987792968750,21.0079994201660160,36.6198005676269500,281.2872924804687500,71.0551071166992200,21.0191707611084000,28.2608108520507800,67,140,109,86,61,15212,2230272429,2252686217,2260030262,2160784621,2190956425,2207861549,2209268489,2156550866,3565,7,13,9521
1341250516,5804,43.8499984741210940,21.0976009368896500,36.6268005371093750,281.7503051757812500,68.6599426269531200,21.0927791595459000,28.2136096954345700,66,147,109,86,57,15209,2230583497,2249784219,2254089316,2160511835,2192314139,2207707620,2206883154,2156304420,529,7,12,15623
1341250608,5804,41.3600006103515600,21.3504009246826170,36.6146011352539060,281.0144042968750000,59.2781715393066400,21.3813209533691400,28.1258602142334000,64,143,108,89,59,15202,2253887689,2274849289,2279347757,2165603373,2207778980,2225869028,2223079716,2158866624,263,7,13,55772
1341250653,5805,39.4500007629394500,22.1551990509033200,36.5583000183105500,276.5271911621094000,35.0881805419921900,22.1270809173584000,27.9995193481445300,63,143,108,88,59,15187,2265213330,2286994413,2292594898,2169218267,2216389440,2235455625,2231495780,2160466532,346,7,12,21987
1341250770,5804,37.9700012207031250,22.3773994445800780,36.5625000000000000,274.7715148925781000,26.9544391632080080,22.3784694671630860,27.9674606323242200,63,142,109,88,61,15172,2261720859,2281132461,2285074249,2168553435,2215240064,2232888091,2228472512,2160220077,1430,8,13,32317
1341250959,5804,35.9099998474121100,22.5326004028320300,36.5369987487793000,273.6134033203125000,22.4768695831298830,22.5170001983642580,27.9574794769287100,63,152,110,88,58,15164,2274903195,2295304923,2300547373,2173679222,2226766893,2245646235,2239555072,2162515008,1172,8,13,65264
1341251268,5804,33.5299987792968750,22.7600994110107420,36.4986991882324200,269.5942993164062500,14.1671800613403320,22.7743701934814450,28.0123291015625000,61,145,107,87,61,15176,2303891958,2327329865,2335208027,2183128210,2251781293,2273101494,2263594203,2167265828,1071,7,13,44475
1341251325,5808,31.7299995422363280,22.9206008911132800,36.4830017089843750,268.1339111328125000,10.0242795944213870,22.9028205871582030,28.0190200805664060,62,141,108,87,61,15193,2314708909,2336621750,2343900964,2188225846,2263490203,2285007387,2273514633,2169297792,1807,6,13,29264
1341251585,5805,29.7099990844726560,23.2413997650146500,36.4197006225585940,262.4548950195312500,-1.4440389871597290,23.2589092254638670,28.1052494049072270,59,140,107,87,57,15207,2338276717,2361883547,2371216292,2197725677,2293857462,2316185819,2298302244,2174078226,1346,8,13,40353
1341251678,5803,27.7399997711181640,23.3724994659423830,36.3956985473632800,260.2638854980469000,-5.7700572013854980,23.3934307098388670,28.1409797668457030,57,140,106,87,56,15215,2354279917,2379686235,2392539510,2207821970,2311567926,2332638445,2310891867,2177159771,1445,8,12,43534
1341251771,5804,25.7900009155273440,23.3915004730224600,36.3925018310546900,258.9382019042969000,-6.4792418479919430,23.4155006408691400,28.1863307952880860,57,139,107,86,57,15216,2342133869,2362137014,2371459702,2206600009,2310147520,2327235702,2302204425,2176458742,1460,7,12,18223
